Theta_e
316 316 317 318 318 318 317 316 316 316 316 316 316 317 317 317 318 318 318 318 318 321 326 331 334 335 334 333 332 332 330 331 331 331 332 333 334 335 335 335 335 335 335 336 336 336 335 334 333 333 333 332 332 331 331 329 328 327 327 326 326 326 326 326 326 326 326 325 324 323 322 322 323 325 327 327 328 328 329 330 332 332 332 332 331 330
315 316 316 317 318 319 318 317 316 315 315 315 316 316 316 316 317 317 317 317 317 318 321 327 332 334 334 333 333 333 332 332 331 331 331 332 334 335 335 335 335 335 335 335 336 336 336 335 334 333 333 333 333 332 332 331 330 329 328 327 327 326 326 326 326 325 325 324 323 323 322 322 324 326 328 328 329 330 331 332 332 332 332 331 330 329
315 316 316 317 318 319 319 318 317 316 315 315 315 315 316 315 315 316 316 316 316 317 318 323 328 332 333 334 334 334 334 333 332 331 331 331 333 334 335 335 335 335 334 335 335 336 336 335 334 334 333 333 333 333 333 332 331 329 329 328 327 326 326 326 325 325 324 323 323 322 322 323 324 326 328 330 331 332 332 332 332 332 331 330 328 327
315 315 316 317 318 319 319 318 317 316 315 315 315 315 315 315 315 315 315 315 316 316 318 321 326 330 332 333 334 335 334 334 333 332 331 332 333 334 335 335 335 335 335 335 336 336 337 336 335 334 334 334 334 334 333 331 330 329 329 328 327 326 326 325 325 324 323 322 322 321 322 323 325 327 329 330 332 332 332 332 331 331 330 328 326 324
315 315 316 316 318 319 320 319 317 316 315 315 315 315 314 314 314 314 314 315 315 316 317 320 325 329 331 332 333 334 334 334 334 334 333 334 334 335 336 336 336 336 335 336 336 336 336 336 335 334 334 334 333 333 332 330 329 329 328 328 327 327 326 326 325 324 323 322 321 321 321 323 325 327 328 329 330 330 330 330 329 328 327 325 323 321
315 315 315 316 318 319 320 319 317 316 315 315 315 314 314 314 314 314 314 314 315 316 317 320 323 328 330 331 332 332 333 334 334 334 334 335 335 336 337 337 337 336 336 336 336 336 336 336 336 335 334 334 333 332 331 330 329 328 327 327 327 327 327 327 326 325 323 322 321 320 321 322 324 326 327 328 328 328 328 328 327 326 324 322 320 318
315 315 315 316 317 319 319 319 318 316 315 315 315 315 314 314 314 314 314 314 315 316 317 319 322 326 329 331 331 332 332 333 333 333 333 333 334 334 335 336 336 336 336 336 336 336 336 336 335 335 335 334 333 332 330 329 328 327 327 327 327 327 328 327 327 326 324 322 321 320 321 322 323 325 326 326 327 326 326 325 324 323 321 319 318 316
315 315 315 315 317 318 319 319 318 317 316 315 315 315 315 314 314 314 314 314 315 316 316 318 321 324 327 330 331 331 331 332 333 333 333 332 332 332 332 333 333 333 334 335 335 336 336 335 335 334 334 334 333 332 331 329 328 327 327 327 327 328 328 328 327 326 324 323 321 321 321 322 323 324 324 325 325 325 324 324 322 321 319 317 317 316
315 314 314 315 316 318 319 319 319 318 317 316 316 315 315 315 314 314 314 314 315 315 316 317 319 322 325 328 329 330 331 332 333 333 333 332 332 331 331 331 331 331 332 332 333 334 334 334 334 333 333 332 332 331 331 330 329 328 327 327 328 328 328 328 327 326 324 322 321 321 322 322 323 323 324 324 324 324 323 322 321 319 318 317 317 317
315 314 314 315 316 318 319 319 319 318 317 317 316 316 315 315 315 314 314 314 315 315 316 317 318 321 323 326 328 329 330 331 332 333 332 332 331 331 330 330 330 330 330 331 331 332 332 332 332 332 331 331 331 331 331 330 329 328 328 328 328 328 327 327 326 324 323 322 322 323 324 325 325 324 324 324 323 323 322 321 320 319 317 317 317 318
315 315 315 315 316 317 318 319 319 318 317 317 317 316 316 316 315 315 315 315 315 315 316 316 317 319 322 324 326 328 329 330 331 332 332 332 331 330 330 329 329 330 330 330 330 330 330 330 330 330 329 329 330 330 330 330 330 329 329 329 328 328 327 326 325 324 323 323 323 325 327 327 326 325 325 324 323 322 322 321 320 319 318 318 318 318
314 315 315 316 316 317 318 319 319 319 318 317 317 317 317 316 316 315 315 315 315 315 315 316 317 318 320 322 324 326 328 329 330 331 331 331 330 330 330 329 329 329 329 330 330 330 330 329 329 329 329 329 329 330 330 330 330 330 330 330 329 328 327 325 325 324 323 323 324 326 328 328 326 325 325 324 323 322 321 321 320 319 319 318 319 319
314 314 315 316 316 317 317 318 319 319 318 318 318 317 317 317 316 316 315 315 315 315 315 316 317 318 319 321 322 324 325 327 328 329 330 330 330 330 330 329 329 329 329 330 330 329 329 329 328 329 329 329 329 330 330 330 330 330 330 329 329 328 326 326 325 325 324 323 324 325 325 325 324 324 323 323 322 322 322 321 321 320 320 319 320 320
314 314 315 315 316 316 317 318 319 319 319 318 318 318 318 317 317 316 315 315 315 315 315 316 317 318 318 319 321 322 323 325 327 328 329 329 329 329 329 329 329 329 329 329 329 329 329 329 329 329 329 329 330 330 330 330 330 330 329 329 328 327 327 326 326 326 325 324 324 323 323 323 322 322 322 322 322 322 322 322 322 321 321 321 320 321
314 314 314 315 315 316 317 318 318 319 319 318 318 318 318 317 317 317 317 316 316 316 316 317 318 318 317 317 319 320 321 323 325 326 327 327 328 328 329 329 329 329 329 329 329 329 329 329 329 329 330 330 330 330 330 330 330 330 329 329 328 327 327 327 328 328 328 327 326 325 323 323 322 322 322 322 322 323 323 323 323 322 322 322 322 321
313 314 314 315 315 316 317 317 318 319 319 318 318 318 318 318 318 318 318 317 317 317 317 318 318 318 316 315 316 318 319 320 322 324 325 325 325 326 327 328 328 328 328 328 328 328 328 329 329 329 329 329 329 330 329 329 329 329 329 328 327 326 327 328 329 329 329 328 328 327 326 325 324 323 323 323 323 323 324 324 324 324 324 323 323 323
312 313 314 314 315 316 317 317 317 318 318 319 319 318 318 318 318 318 319 318 318 318 318 318 318 318 317 315 315 316 317 318 319 321 322 322 322 321 323 325 326 327 326 326 326 326 326 327 327 327 327 327 328 328 328 328 328 329 329 328 327 327 328 329 329 328 328 328 328 328 327 326 326 325 325 325 325 325 325 325 325 325 325 324 324 324
311 312 313 314 315 316 316 316 316 317 318 318 319 319 318 318 318 318 319 319 319 319 319 319 319 319 319 316 315 315 316 317 318 318 319 319 318 317 318 321 323 324 323 323 322 322 323 324 324 325 325 325 325 325 325 326 327 327 328 328 328 328 328 328 328 328 328 328 328 328 328 327 327 327 326 326 326 326 326 326 326 326 325 325 325 325
312 312 313 314 315 316 316 316 316 316 317 318 318 318 318 318 318 318 318 318 319 319 319 319 319 319 319 318 316 315 316 317 317 317 318 317 315 314 315 317 320 321 321 320 319 319 319 320 320 320 321 321 321 322 322 323 323 324 325 325 326 326 326 326 326 326 326 327 327 327 327 327 327 327 327 326 326 326 326 326 326 326 325 325 325 325
312 313 314 315 315 315 315 315 315 315 316 317 317 317 317 317 317 317 316 317 317 318 319 319 319 319 319 318 317 316 316 316 317 317 317 315 313 312 312 314 317 319 319 319 318 317 317 317 317 317 317 317 318 319 319 320 320 320 321 321 322 322 322 322 322 322 323 323 323 323 323 323 324 324 324 324 324 324 324 324 324 324 323 323 323 322
312 313 314 315 315 315 315 315 315 315 315 315 316 316 316 316 316 316 315 316 316 317 317 317 317 317 317 318 316 315 315 314 315 316 316 314 312 311 311 313 315 317 317 316 315 315 315 315 315 315 315 315 316 317 317 318 318 318 318 318 319 319 319 319 320 320 320 320 320 320 320 320 320 320 320 320 321 321 321 321 321 321 320 320 319 319
313 313 314 315 315 314 315 315 314 314 314 314 314 314 314 315 315 315 314 315 315 315 315 315 315 316 316 316 315 314 313 313 314 315 315 313 310 309 310 311 313 314 314 313 312 312 313 313 313 313 313 313 314 315 316 316 317 317 317 317 317 317 317 317 318 318 318 318 318 317 317 317 317 317 317 317 318 318 318 318 318 318 318 317 316 316
313 313 314 314 314 314 314 314 314 313 312 312 312 312 313 313 313 314 313 313 314 314 314 314 314 314 314 314 314 313 312 312 313 314 315 312 309 308 309 310 312 313 312 310 309 310 311 311 311 310 310 311 312 313 313 314 315 315 315 315 315 315 315 315 315 315 315 315 315 315 315 315 315 315 315 315 315 316 316 316 316 316 316 315 314 314
312 313 314 314 314 313 314 314 313 312 311 311 310 310 311 311 312 312 312 313 313 313 313 313 313 312 311 312 312 312 311 311 312 313 314 312 308 306 308 309 310 310 308 307 307 308 309 309 309 308 308 309 309 310 311 311 312 313 313 313 313 313 313 313 313 313 313 313 313 313 313 313 313 313 313 313 314 314 314 314 314 314 314 313 313 313
312 313 313 313 313 313 314 314 313 312 311 310 309 309 310 310 310 311 311 311 312 312 312 312 311 310 310 310 310 310 310 310 311 312 314 312 308 305 306 307 308 308 306 305 305 306 307 307 307 306 306 307 307 308 308 309 310 311 311 311 312 312 312 312 312 312 312 312 312 312 312 312 312 312 312 313 313 313 313 313 313 313 313 313 312 312
311 312 312 312 312 313 314 314 313 312 311 310 309 309 309 310 310 310 310 310 310 310 311 310 310 309 309 309 309 309 309 309 310 311 313 312 308 305 305 306 307 306 304 303 304 305 305 305 305 305 305 305 305 306 307 307 308 309 310 310 310 311 311 311 311 311 311 311 311 311 311 311 311 312 312 312 312 312 312 312 312 312 312 312 312 312
310 310 310 310 311 313 314 313 312 312 311 310 309 309 309 310 310 309 309 309 309 309 310 309 309 308 308 308 308 308 308 308 309 309 311 311 309 306 304 304 305 305 304 303 303 304 304 304 304 304 304 304 304 304 305 306 307 308 308 309 309 310 310 310 310 310 310 310 310 310 310 310 310 311 311 311 311 311 311 311 311 311 311 311 311 311
309 309 309 309 310 312 314 313 312 311 310 309 309 309 309 309 310 310 309 309 309 309 309 309 308 307 306 306 306 307 307 308 308 308 308 310 309 306 304 304 305 305 304 302 302 303 303 303 303 303 303 303 304 304 304 305 306 307 307 308 308 308 308 308 308 308 308 308 309 309 309 309 309 309 310 310 310 310 310 310 310 310 310 310 310 310
307 308 308 308 310 312 313 312 311 310 309 309 308 307 308 309 310 311 310 310 309 308 309 309 308 308 307 306 306 306 306 306 307 307 307 309 308 306 305 304 305 305 304 303 302 302 303 303 303 303 303 303 304 305 305 305 306 306 306 306 307 307 307 307 307 307 307 307 307 307 308 308 308 308 309 309 309 309 309 309 309 309 309 309 309 309
308 308 308 309 311 312 312 311 310 309 309 308 307 307 307 307 309 310 310 310 309 309 309 309 308 308 307 306 305 304 304 305 305 306 306 307 307 306 305 305 305 305 305 304 303 302 301 301 302 302 303 303 304 305 305 305 306 306 306 306 306 306 306 306 306 306 306 306 306 306 307 307 307 308 308 308 308 308 308 308 308 308 308 308 308 308
310 311 311 311 312 312 312 312 311 310 309 309 308 306 306 306 307 308 309 309 309 309 310 309 309 308 308 307 304 303 303 303 304 305 306 307 307 306 305 305 306 306 307 307 305 302 299 299 300 301 302 303 304 304 304 305 305 305 305 305 305 305 305 305 305 305 305 305 305 306 306 306 306 307 307 307 307 307 307 307 307 307 307 307 307 307
312 312 313 313 313 313 312 312 311 311 310 309 308 306 306 306 306 307 308 308 309 309 310 309 309 308 308 308 307 305 304 304 304 305 306 307 307 306 305 305 306 306 307 308 308 305 301 299 298 299 301 302 303 303 303 303 304 304 304 305 305 305 305 305 305 305 305 305 305 305 305 305 306 306 306 306 306 306 306 306 306 306 306 306 306 306
312 312 313 313 312 312 311 311 310 310 309 308 307 306 306 305 306 306 307 307 308 308 309 309 309 308 308 308 308 307 305 305 304 304 305 307 306 305 305 305 305 306 306 307 308 308 305 302 300 299 300 301 301 302 302 302 302 302 303 303 304 304 304 304 304 305 305 305 305 305 305 305 305 305 305 305 306 306 306 306 306 305 306 305 305 305
311 311 311 311 311 310 309 309 308 308 308 307 306 306 305 305 305 305 306 306 306 306 307 308 309 309 309 308 308 307 305 305 304 304 304 306 306 306 305 305 305 305 305 306 306 307 306 304 302 300 300 300 300 300 300 300 301 301 301 302 303 303 303 303 304 304 304 304 305 305 305 305 305 305 305 305 305 305 305 305 305 305 305 305 305 304
310 310 310 310 309 308 308 307 307 306 306 306 305 305 305 304 304 304 305 305 305 305 306 307 308 308 309 309 308 307 305 304 304 303 303 305 306 306 305 305 305 305 305 305 306 305 304 303 302 301 300 299 299 299 299 300 300 300 301 302 302 303 303 303 304 304 304 304 304 305 305 305 305 305 305 305 305 305 304 304 304 304 304 304 304 303
310 309 309 308 308 307 306 306 305 305 305 305 305 305 304 304 304 304 304 304 304 304 305 305 306 307 307 308 309 308 306 305 304 303 303 304 305 306 305 305 305 305 305 305 305 305 304 302 302 301 301 300 299 299 299 299 300 301 301 302 302 303 303 303 304 304 304 304 304 304 304 304 304 304 304 304 304 304 304 304 303 303 303 303 303 302
309 308 307 307 306 306 306 305 305 305 305 305 305 305 305 305 304 304 303 303 303 304 304 304 305 306 306 306 307 307 305 304 304 303 303 303 304 305 305 305 304 305 305 305 305 305 304 303 302 301 301 301 300 299 299 300 300 301 301 302 302 303 303 303 303 303 304 304 304 304 304 304 304 303 303 303 303 303 303 302 302 302 302 301 301 301
308 307 306 306 306 306 306 306 306 306 306 306 306 306 306 306 305 304 304 303 303 303 304 304 304 305 305 305 305 305 304 304 304 303 303 303 303 304 305 304 304 304 304 305 305 305 305 304 302 301 301 301 301 300 300 300 301 301 302 302 302 303 303 303 303 303 303 303 303 303 303 303 302 302 302 302 302 301 301 301 300 300 300 300 300 299
307 307 306 306 306 306 306 306 306 306 307 307 307 307 307 306 306 305 304 303 303 303 304 304 304 304 304 304 304 304 304 304 303 303 302 302 302 303 304 304 304 303 303 304 304 305 305 305 304 303 302 301 301 301 301 301 301 301 302 302 302 302 302 302 302 302 302 302 302 302 301 301 301 301 300 300 300 300 299 299 299 299 298 298 298 298
307 307 307 306 306 307 307 307 307 307 307 307 307 307 307 306 306 305 304 303 303 303 304 304 304 304 304 304 304 304 304 303 303 303 302 302 301 302 302 303 303 303 303 303 303 304 305 305 305 304 304 303 302 301 301 301 301 301 301 301 301 301 301 301 301 301 301 300 300 300 300 300 299 299 299 299 299 298 298 298 298 298 297 297 297 297
307 307 307 307 307 307 307 307 307 307 307 307 307 307 307 306 306 305 304 303 303 303 304 304 304 304 304 304 304 304 304 303 303 303 302 302 301 301 301 302 302 303 303 303 303 303 304 304 304 304 303 303 303 302 301 301 301 300 301 301 300 300 300 300 299 299 299 299 299 299 299 298 298 298 298 298 298 298 297 297 297 297 297 297 296 296
307 307 307 307 307 307 307 307 307 306 306 307 307 307 307 306 306 305 305 304 303 303 304 304 304 304 304 304 303 303 303 303 303 303 302 302 301 301 301 301 302 302 303 302 302 302 303 303 303 303 303 303 303 302 301 300 300 299 299 299 299 299 299 298 298 298 298 298 298 298 298 298 298 297 297 297 297 297 297 296 296 296 296 296 296 296
307 307 306 306 306 306 306 306 306 306 306 306 306 306 306 306 306 305 305 305 304 304 304 304 304 304 304 304 303 303 303 303 303 303 302 302 301 301 301 301 301 302 302 302 302 301 301 302 302 302 302 302 302 302 301 300 299 298 298 298 298 298 298 297 297 297 297 296 296 296 297 297 297 296 296 296 296 296 296 296 296 296 295 295 295 295
307 306 306 306 306 306 306 306 306 306 306 306 306 306 305 305 305 305 305 305 305 304 304 304 304 304 304 304 303 303 303 303 303 303 302 302 301 301 301 301 301 301 301 301 301 301 301 300 300 300 300 301 301 301 301 300 299 298 297 297 297 297 297 296 296 295 295 295 295 295 295 295 295 295 295 295 295 295 295 295 295 295 295 294 294 294
306 306 306 306 306 305 305 305 305 305 305 305 305 305 305 305 305 305 305 305 305 305 304 304 304 305 304 304 303 303 302 302 302 302 302 302 301 301 301 301 300 300 300 300 300 301 300 300 299 299 299 299 299 300 300 299 299 298 297 297 296 296 295 295 295 294 294 294 294 294 294 294 294 294 294 294 294 293 293 293 294 293 293 293 293 293
306 306 305 305 305 305 305 305 305 305 305 305 305 305 305 305 305 305 305 305 305 304 304 304 304 305 304 304 303 303 302 302 302 302 301 301 301 300 300 300 300 300 299 299 299 300 300 300 299 299 298 298 298 298 298 298 298 298 297 296 296 295 295 294 294 294 293 293 293 293 293 293 293 293 293 293 292 292 292 292 292 292 292 292 292 292
306 306 305 305 305 305 305 305 305 305 305 305 304 304 304 304 304 305 305 305 305 304 304 304 304 304 304 304 303 303 303 302 302 301 301 301 300 300 300 299 299 299 299 299 298 298 298 298 298 298 298 298 297 297 296 296 296 296 295 295 294 294 294 293 293 293 292 292 292 292 292 292 292 292 292 292 292 292 292 292 292 292 292 292 292 292
306 306 305 305 305 305 305 305 304 304 304 304 304 304 304 304 304 304 304 304 304 304 304 304 304 304 304 304 303 303 303 302 302 301 301 300 300 299 299 299 299 299 298 298 298 297 297 296 296 296 296 296 296 296 295 294 294 294 293 293 293 293 292 292 292 292 292 291 291 291 291 291 291 291 291 291 291 291 291 291 291 291 291 291 291 291
305 305 305 305 305 305 304 304 304 304 304 304 304 303 303 303 303 303 304 304 304 304 304 304 304 304 304 303 303 303 303 302 302 301 301 300 300 299 299 299 299 298 298 297 297 296 296 295 294 293 293 293 293 294 294 293 292 292 292 292 291 291 291 291 291 291 291 291 291 291 291 291 291 291 291 291 291 291 291 291 291 291 291 291 291 291
304 304 304 304 304 304 304 304 303 303 303 303 303 303 303 302 302 302 303 303 303 303 303 303 303 304 304 303 303 302 302 302 302 301 300 300 299 299 299 299 298 298 297 297 296 295 294 294 293 292 292 291 291 291 292 292 292 291 291 291 291 291 291 291 291 291 290 290 291 291 291 291 291 291 291 291 291 291 291 291 291 291 291 291 291 291
304 304 303 303 304 304 303 303 303 303 303 303 303 302 302 302 301 301 301 302 302 302 302 302 302 303 303 302 302 301 301 301 301 301 300 300 299 299 298 298 298 297 297 296 295 294 293 293 292 292 291 291 290 290 290 290 290 290 290 290 290 290 290 290 290 290 290 290 290 290 291 291 291 291 291 291 291 291 291 291 291 291 291 291 291 291
Wind_Speed
39 38 35 34 33 33 34 36 40 46 51 53 53 53 52 53 52 48 43 39 37 35 38 50 61 65 62 55 51 50 52 55 56 57 57 57 56 54 51 49 48 48 49 49 50 51 52 52 52 51 51 51 50 49 48 47 46 45 45 45 45 45 45 44 43 43 43 43 43 43 43 44 44 43 43 41 40 38 37 38 38 38 38 38 40 40
40 38 36 34 34 34 34 34 37 42 47 51 52 51 50 52 53 53 49 45 42 40 37 42 54 62 64 61 58 56 57 58 59 59 58 58 57 56 53 50 48 48 48 49 50 51 53 54 53 53 52 52 52 51 50 48 47 46 46 45 45 45 45 44 43 43 43 43 43 43 43 43 43 43 42 40 39 38 39 39 39 38 38 39 40 40
39 38 37 35 35 35 34 33 34 37 42 46 48 48 47 48 50 53 52 49 46 44 41 38 45 56 61 63 62 61 61 61 61 60 59 58 58 58 55 52 50 49 49 49 50 51 53 54 54 54 53 53 53 52 50 48 47 46 46 46 45 45 44 44 43 43 43 43 43 43 43 43 43 42 41 40 39 40 40 40 39 39 40 40 40 40
38 38 38 36 36 35 34 32 32 33 36 40 44 45 46 45 47 50 51 50 48 46 43 38 39 49 56 59 61 62 62 63 62 60 59 59 59 59 57 54 52 50 50 50 51 52 53 54 54 54 52 52 52 51 49 48 47 46 46 46 45 45 44 44 43 43 42 42 42 43 43 43 43 42 41 40 40 41 41 40 40 41 41 41 40 39
38 38 38 37 36 36 34 31 29 29 30 34 38 42 44 44 45 47 48 48 47 46 44 38 35 42 51 54 57 58 60 62 62 62 61 61 61 61 58 56 54 53 53 53 53 53 54 54 54 53 51 51 50 49 48 46 46 46 46 46 46 45 45 44 44 43 42 42 42 42 42 42 42 41 41 41 41 41 41 42 42 42 41 41 40 39
38 38 37 36 36 36 35 32 28 26 25 27 31 36 40 41 42 44 45 46 46 44 42 38 33 38 47 51 53 54 57 58 60 61 62 62 62 61 60 58 57 56 56 56 56 55 55 54 54 53 52 51 50 49 47 46 46 45 45 45 45 46 46 45 44 44 43 42 42 42 42 42 42 42 41 41 41 42 42 42 42 41 40 40 39 38
38 38 37 36 36 36 35 33 30 26 23 21 22 25 29 33 36 39 41 43 43 41 40 37 32 35 43 49 51 52 53 54 55 57 58 60 60 60 60 59 58 58 58 58 58 57 56 55 54 54 53 52 51 49 48 46 46 45 45 45 45 46 46 46 45 45 44 43 42 42 42 42 42 42 42 42 42 42 42 42 41 40 39 38 38 37
37 37 37 36 36 36 35 33 31 27 24 21 20 19 21 24 27 31 35 38 39 38 37 35 32 32 39 46 50 51 50 51 53 54 55 56 57 58 58 58 58 58 58 58 58 58 57 56 55 54 53 52 51 49 48 47 46 45 45 45 46 46 47 46 46 45 45 44 43 42 42 42 42 41 41 41 42 42 42 41 40 39 39 38 37 36
36 37 36 36 35 34 34 33 31 28 26 24 22 20 20 21 23 26 29 32 34 35 34 33 31 31 34 41 46 50 50 51 52 53 54 54 54 54 54 55 57 57 58 58 58 57 56 55 54 53 52 51 50 49 48 46 45 45 45 46 46 47 48 48 47 47 45 44 43 42 42 42 41 41 41 41 41 41 41 41 40 39 38 38 37 36
35 36 35 34 33 32 33 33 32 29 27 26 24 22 20 20 20 22 24 26 29 30 31 31 29 30 32 37 43 47 50 51 52 52 52 51 50 49 49 50 52 55 57 58 57 56 55 53 51 51 50 50 49 48 47 46 45 45 46 47 48 49 49 49 49 48 47 45 43 42 42 42 42 41 41 42 42 42 41 41 40 39 38 38 37 36
34 34 33 32 31 31 32 32 32 30 28 27 26 23 21 20 19 19 19 21 23 26 28 29 29 29 31 33 39 45 49 51 51 51 50 48 46 45 45 46 48 50 54 56 56 55 53 50 49 47 47 47 47 47 46 46 45 46 46 48 49 51 51 51 51 50 48 45 43 42 43 42 42 42 42 43 43 42 42 41 40 39 39 38 38 37
33 32 31 30 30 30 31 31 31 30 30 30 29 27 25 21 17 16 16 18 20 22 24 26 27 27 29 30 34 40 46 49 50 50 49 46 44 43 43 44 45 47 49 52 52 51 49 47 45 44 44 45 45 45 45 44 45 45 46 48 50 52 52 52 51 49 47 45 43 43 43 42 42 43 43 44 43 43 42 41 40 40 39 39 39 38
30 30 29 29 29 30 31 30 30 30 31 31 32 32 29 23 17 15 16 17 17 17 18 20 23 24 28 31 32 34 39 44 47 48 46 45 44 43 43 43 44 45 46 47 47 47 46 45 44 44 44 44 44 44 43 43 43 44 45 47 49 51 51 50 49 47 45 44 44 44 44 44 44 44 45 44 44 43 42 42 41 41 40 40 40 39
28 28 28 29 30 30 30 30 30 31 32 33 33 32 30 26 21 16 13 11 10 10 12 15 18 22 25 29 31 33 34 38 43 45 45 44 43 43 42 42 43 43 43 44 44 45 45 44 44 44 44 44 44 44 43 43 43 44 45 47 48 48 49 48 47 46 45 45 45 45 46 46 45 45 45 45 44 43 43 43 42 42 42 41 41 41
27 28 29 29 30 30 29 29 30 31 32 33 34 33 32 29 24 19 13 8 5 5 8 11 14 19 21 24 27 30 31 33 37 41 43 42 42 41 40 41 41 42 42 42 43 44 45 45 45 45 45 45 44 44 44 44 44 45 45 45 45 46 46 47 47 46 46 46 46 46 47 47 47 46 46 45 45 44 44 44 44 44 44 43 43 43
28 29 30 30 30 29 28 28 29 31 32 34 35 35 34 31 27 22 16 10 6 5 6 9 13 16 17 18 20 24 26 28 32 36 38 38 37 37 37 38 40 41 41 42 43 43 44 45 45 45 44 44 44 44 44 44 44 43 43 43 43 44 45 47 47 46 46 46 46 46 47 48 48 48 47 47 46 46 46 46 46 46 46 46 46 46
30 31 31 30 30 29 28 28 29 30 33 34 36 36 35 32 28 24 19 14 11 9 9 10 14 16 16 14 15 17 21 24 27 30 32 32 31 30 32 34 37 39 39 39 40 40 40 41 42 42 42 42 42 42 42 42 42 42 42 43 43 44 46 47 47 46 46 46 46 46 47 47 48 48 49 48 48 47 47 47 47 47 47 47 47 47
32 32 31 31 30 29 28 28 29 31 32 35 36 37 35 32 28 25 23 19 17 15 15 14 15 18 19 17 15 15 17 19 22 25 26 26 25 25 26 29 32 34 34 33 32 32 32 33 34 34 35 35 36 36 37 38 39 40 41 42 43 44 45 45 46 46 46 45 45 45 46 47 48 49 49 50 49 49 48 48 47 46 46 45 46 46
33 32 31 31 30 29 28 29 30 31 32 34 36 37 35 32 29 27 25 23 21 20 19 19 19 20 22 21 19 18 17 18 20 22 23 22 22 22 22 23 26 28 28 26 24 23 23 24 25 25 25 25 26 27 28 29 30 32 33 35 36 37 38 38 39 40 40 41 42 41 42 43 44 46 47 48 48 49 48 47 46 45 44 43 42 42
33 32 31 29 28 28 28 29 29 30 31 33 34 35 34 32 29 27 26 25 24 23 22 22 22 23 24 23 22 21 20 19 20 22 22 22 22 22 22 21 23 25 24 22 20 19 18 18 18 18 17 17 18 18 19 19 20 21 22 23 24 25 26 26 27 28 29 30 31 32 32 33 34 35 37 38 40 40 41 41 40 40 38 37 36 35
32 31 29 27 26 26 27 27 27 27 28 30 31 32 31 30 28 27 26 26 25 25 24 23 23 24 24 24 24 22 22 21 22 23 22 22 23 23 22 21 22 23 22 21 19 18 18 17 16 15 14 13 13 13 14 14 14 14 15 15 16 16 17 18 18 19 19 20 20 21 21 21 22 22 23 24 25 26 27 28 29 29 28 28 27 26
31 30 27 25 24 24 24 23 23 24 25 27 28 28 27 27 26 26 26 26 25 24 23 22 22 23 23 24 24 23 22 21 22 23 22 22 23 23 22 21 21 22 22 22 21 20 20 19 18 17 15 14 13 13 12 12 12 12 12 12 12 12 12 13 13 14 14 14 14 14 14 13 13 13 13 14 15 16 17 18 20 20 21 20 20 18
29 28 25 23 22 21 20 20 20 21 22 23 23 23 23 23 24 25 25 25 25 23 22 21 21 22 22 23 23 23 23 22 22 22 22 23 24 24 23 21 21 23 23 24 24 23 22 22 21 20 18 16 16 15 14 14 14 13 12 12 12 11 11 11 11 12 12 12 12 12 12 12 12 12 12 12 13 14 15 16 17 18 18 17 15 14
27 26 24 22 20 19 18 18 18 19 19 20 20 20 20 21 22 23 24 24 23 23 22 21 22 22 23 23 23 23 23 21 21 21 21 22 24 25 23 22 23 25 25 26 26 26 26 25 24 23 21 20 18 18 18 17 17 16 15 15 14 14 13 13 13 13 13 14 14 14 14 14 15 15 15 15 15 15 16 16 16 16 16 15 13 12
24 23 21 20 18 17 17 17 17 17 17 18 19 19 19 20 21 21 22 22 22 22 21 22 23 25 25 24 23 23 22 20 19 19 20 21 24 26 25 24 25 27 28 27 27 27 27 27 26 25 24 22 21 20 20 20 20 19 18 18 17 16 16 15 15 15 15 16 16 16 16 16 16 16 16 16 16 15 15 15 15 15 14 13 12 11
21 20 19 17 16 16 17 18 17 16 16 16 17 18 18 19 20 20 21 22 22 22 22 23 25 26 25 25 24 23 21 19 17 17 18 20 23 27 27 25 26 28 29 28 27 27 27 27 27 26 25 23 22 21 20 20 21 21 20 20 19 18 17 17 16 16 16 16 17 17 17 17 17 17 16 16 16 16 15 15 15 14 13 13 12 12
19 18 17 16 16 17 19 19 17 15 15 15 16 16 17 18 19 21 22 22 22 22 23 25 26 27 26 25 24 23 21 18 17 16 17 18 22 26 27 26 26 28 29 28 27 26 26 27 26 26 24 23 21 20 19 20 20 20 20 20 19 19 18 18 17 17 17 17 17 17 17 17 17 17 16 16 16 16 16 15 15 15 14 14 13 12
17 16 16 15 16 17 19 19 16 15 14 14 15 15 16 17 18 20 21 21 21 21 23 25 27 28 27 26 24 22 20 19 18 17 17 19 22 26 26 25 25 26 27 27 26 24 24 24 24 24 23 22 21 20 19 19 19 19 19 19 19 19 18 18 17 17 17 16 16 16 16 16 16 16 16 16 16 15 15 15 15 15 14 13 13 12
16 16 16 16 16 17 19 18 16 14 15 15 15 15 15 16 17 18 19 19 20 21 23 24 26 27 28 27 25 23 21 21 21 20 20 21 23 25 24 23 23 24 25 25 24 22 21 21 21 21 20 20 19 19 18 18 18 18 18 18 18 18 17 17 17 16 16 16 15 15 15 15 15 15 15 15 15 15 14 14 14 14 13 12 12 11
16 15 15 16 17 18 18 18 16 15 15 15 15 15 15 16 16 17 18 19 20 22 23 25 26 27 28 28 26 25 24 24 23 22 22 24 25 24 23 23 22 21 22 23 24 23 22 20 18 18 17 17 17 17 17 17 17 17 17 17 17 17 17 17 16 16 16 15 15 15 15 15 15 15 15 15 14 14 14 14 13 13 12 12 11 10
14 13 13 13 14 16 17 18 17 16 16 16 15 15 15 16 17 18 19 20 21 22 24 25 27 28 28 29 29 29 28 26 24 23 22 24 25 25 25 24 23 21 20 21 24 26 24 21 18 16 16 16 16 16 16 16 16 16 17 17 17 17 17 17 16 16 16 16 16 16 15 15 15 15 15 15 15 14 14 13 13 12 11 11 10 10
14 12 11 10 11 13 16 17 18 17 17 16 15 14 14 15 17 19 21 21 22 23 24 26 27 28 28 28 30 30 30 28 25 22 21 22 24 24 25 25 24 22 20 19 20 22 22 23 21 18 17 17 17 17 17 17 16 16 16 17 18 18 17 17 17 17 17 17 17 16 16 16 16 15 15 15 14 14 13 13 12 11 10 10 10 9
14 13 12 11 12 13 15 17 17 17 17 16 15 14 14 15 16 18 20 21 22 23 25 27 28 28 28 27 27 28 28 27 24 21 19 20 22 24 25 24 24 23 21 19 17 17 20 24 24 22 19 18 18 18 18 17 17 17 16 17 18 18 18 17 17 17 17 16 16 16 16 16 15 15 14 14 13 12 12 11 11 10 10 10 9 9
16 16 15 15 15 15 16 16 17 17 16 16 15 14 14 14 16 17 19 20 20 21 23 25 27 27 27 26 26 26 26 25 23 21 19 18 19 22 24 24 23 22 21 19 17 17 20 23 25 24 22 20 19 19 18 18 17 17 17 17 18 18 18 17 17 17 16 16 15 15 14 14 14 13 13 12 12 11 11 10 10 10 10 9 9 9
18 18 18 18 18 18 18 18 18 18 17 17 16 16 15 14 15 16 17 17 17 18 20 21 22 22 22 22 23 24 25 23 22 20 18 16 16 18 22 22 21 20 19 18 17 19 22 23 24 25 24 23 21 19 19 18 17 17 17 17 17 17 17 17 16 16 15 15 14 14 13 13 12 12 11 11 10 10 10 10 10 9 9 9 9 9
21 21 21 21 21 21 21 21 20 20 19 19 18 17 16 15 14 14 14 14 14 15 17 18 17 16 15 15 17 19 21 20 20 18 16 15 14 15 19 20 19 18 17 16 16 18 23 25 25 25 24 24 22 20 19 19 18 18 17 17 17 17 16 16 15 15 14 14 13 13 12 12 11 11 11 10 10 10 10 10 10 9 9 9 9 9
24 24 23 23 23 23 23 22 22 21 21 20 19 18 18 16 15 14 14 13 14 14 15 16 15 14 13 12 13 14 16 18 18 17 16 14 13 14 16 18 17 16 14 14 15 17 21 24 26 25 24 24 23 21 19 19 19 18 17 17 17 16 15 15 14 14 13 13 13 12 12 11 11 11 11 10 10 10 10 10 9 9 9 9 9 9
26 25 25 24 24 24 24 23 23 22 22 21 20 20 19 19 18 17 16 15 15 16 16 16 15 14 14 14 14 15 16 17 18 17 16 14 13 12 14 16 16 14 12 11 13 15 18 23 25 26 25 23 22 21 20 20 19 18 17 17 16 15 15 14 13 13 13 12 12 12 12 11 11 11 11 10 10 10 10 9 9 9 9 9 8 8
27 26 26 25 24 24 24 24 23 23 22 22 22 21 21 20 20 19 18 18 17 17 17 17 17 17 17 17 17 17 18 18 18 18 16 15 13 12 12 13 14 13 12 11 11 13 16 20 23 25 25 24 22 21 20 19 18 18 17 17 16 15 14 13 13 12 12 12 12 11 11 11 11 10 10 10 10 9 9 9 9 9 8 8 8 8
28 27 26 25 25 24 24 24 23 23 22 22 22 22 21 21 21 20 20 19 19 18 18 18 19 19 19 19 19 19 19 19 18 18 17 16 14 12 11 11 12 12 12 12 12 14 15 18 20 21 22 23 22 21 20 19 18 17 16 15 14 13 13 12 12 12 11 11 11 11 11 10 10 10 10 9 9 9 9 9 9 8 8 8 8 8
28 28 27 25 24 24 23 23 23 22 22 22 22 21 21 20 20 20 20 20 19 19 19 19 19 20 20 20 19 19 19 18 18 18 17 17 15 13 12 11 11 12 13 13 13 14 15 17 18 20 20 20 21 20 19 18 17 15 14 13 13 13 12 12 11 11 10 10 10 10 10 10 9 9 9 9 9 8 8 8 8 8 8 8 7 7
28 27 26 25 24 24 23 23 23 22 22 21 21 20 20 20 20 20 20 20 20 19 19 19 20 20 21 21 20 19 18 18 18 18 17 17 16 15 13 12 13 13 14 14 14 14 15 15 16 18 18 19 19 19 19 18 16 14 13 12 11 12 11 11 10 10 10 10 9 9 9 9 8 8 8 8 8 8 8 7 7 7 7 7 7 7
27 27 26 25 24 23 23 23 22 22 21 20 20 20 20 19 19 19 20 20 20 20 19 19 19 20 21 21 20 19 18 18 18 18 18 18 17 16 15 14 14 15 15 15 15 15 15 14 15 15 15 16 16 17 18 17 16 14 13 11 11 11 11 11 10 10 10 9 9 9 8 8 8 7 7 7 7 7 7 7 7 7 7 7 7 7
26 26 25 25 24 23 23 22 22 21 21 20 20 20 19 19 18 18 19 19 20 20 19 19 19 19 20 20 20 20 19 18 18 18 18 18 18 17 16 16 15 15 15 15 15 15 15 15 15 14 14 13 13 14 15 15 15 14 13 12 11 10 10 10 10 10 10 9 9 8 8 7 7 7 7 7 7 6 6 6 6 6 6 6 6 6
24 25 25 24 24 23 22 22 21 21 20 20 20 19 19 18 18 17 18 19 19 19 19 18 18 19 19 20 20 20 19 19 18 18 18 18 18 17 16 16 15 15 15 14 14 14 15 15 15 15 14 12 11 11 12 13 13 13 13 12 11 11 10 10 10 10 10 9 9 8 8 7 7 7 7 7 7 6 6 6 6 6 6 6 6 6
24 24 24 24 23 23 22 22 21 21 20 20 19 19 18 18 17 17 17 18 19 19 18 17 17 18 19 19 19 19 19 19 19 18 18 18 17 17 16 16 15 15 15 14 14 14 13 14 14 14 14 13 12 11 10 10 11 11 11 11 11 11 10 10 10 9 9 9 8 8 8 7 7 7 7 7 7 7 6 6 6 6 6 6 6 6
23 23 23 23 23 22 22 21 21 21 20 19 19 18 18 17 17 17 17 17 18 18 17 17 16 16 17 18 18 18 19 19 19 18 18 18 17 17 16 15 15 15 15 15 15 14 14 13 12 11 11 12 12 12 11 10 9 9 10 10 10 10 10 9 9 8 8 8 8 7 7 7 7 7 7 7 7 6 6 6 6 6 6 6 6 6
22 22 22 22 22 22 22 21 21 20 20 19 19 18 17 17 16 17 17 17 17 17 17 17 16 16 16 17 17 17 18 18 18 18 18 17 17 16 16 15 15 15 15 15 15 15 15 14 12 10 8 8 9 11 12 11 10 9 9 9 9 9 9 9 8 8 7 7 7 6 6 6 7 7 7 7 7 7 7 6 6 6 6 6 6 7
21 21 21 22 22 22 21 21 20 20 20 19 19 18 17 17 16 16 16 16 16 16 16 16 16 16 16 17 17 17 17 17 18 18 18 17 17 16 15 15 14 14 14 14 15 15 15 15 14 13 10 7 6 8 10 11 11 10 10 9 9 8 8 8 8 7 7 7 6 6 6 6 6 6 6 6 7 7 7 7 7 7 7 7 7 7
20 21 21 21 21 21 21 21 20 20 19 19 19 18 18 17 16 15 15 15 15 15 15 15 15 15 16 17 17 17 16 17 17 17 17 17 16 15 15 14 14 13 14 14 14 14 15 15 15 14 13 11 8 8 8 9 10 10 10 10 9 9 8 8 8 8 7 7 7 7 6 6 6 6 6 6 6 7 7 7 7 7 7 7 7 8
20 20 21 21 21 21 21 20 20 19 19 19 19 18 18 17 16 16 15 14 14 14 14 14 14 15 16 16 17 17 16 16 16 17 16 16 15 15 14 13 13 13 14 14 14 14 15 15 15 14 13 12 11 10 9 8 8 9 10 10 9 9 9 8 8 8 8 8 7 7 7 7 6 6 6 6 7 7 7 7 7 7 8 7 8 8
Wind_Direction
282 284 285 282 278 274 272 270 270 272 274 276 278 280 282 283 284 287 294 303 307 296 269 248 240 239 237 230 221 219 223 228 232 236 238 239 239 239 239 237 236 235 234 234 233 233 232 230 229 228 229 231 232 233 234 235 235 235 235 235 236 236 236 237 237 238 239 239 240 240 241 242 242 243 243 242 241 240 240 239 239 240 243 247 251 254
281 283 284 281 276 272 270 268 268 269 272 274 276 278 281 284 285 285 288 295 304 305 291 260 242 236 235 231 227 225 228 232 234 235 236 237 238 238 239 238 236 235 234 233 233 233 233 231 229 228 228 230 231 232 233 234 235 236 237 237 237 237 237 238 238 238 239 239 239 240 240 241 241 241 241 240 240 239 238 238 238 241 244 249 252 255
281 283 282 280 275 270 267 267 267 267 269 271 274 277 280 284 286 286 286 290 298 305 302 278 248 233 229 228 228 230 234 237 237 236 234 235 237 237 238 238 237 235 234 233 233 233 233 231 229 227 228 229 231 231 232 233 234 236 237 238 238 238 238 238 238 238 238 239 239 239 239 240 240 240 239 239 238 238 238 238 240 244 247 250 253 255
280 282 281 279 274 268 264 265 267 267 268 269 272 275 278 283 286 287 287 290 296 302 305 291 260 235 225 222 223 227 232 236 236 235 233 233 234 235 236 237 237 236 235 234 233 232 232 231 229 228 227 229 230 231 231 231 233 234 236 237 237 237 237 237 237 238 238 238 238 239 239 239 239 239 239 238 238 239 239 241 244 247 249 250 252 254
279 280 280 278 272 265 261 262 265 268 269 271 273 275 278 281 285 288 289 291 295 301 306 298 270 241 227 221 219 221 225 229 231 231 230 230 231 231 232 234 235 235 234 233 232 231 231 231 230 228 227 228 228 229 228 228 230 232 234 235 236 236 237 237 237 237 237 237 238 238 239 239 239 238 238 239 239 240 241 244 246 247 249 250 251 253
278 278 278 276 269 262 258 258 261 265 270 274 277 279 280 282 285 288 289 291 294 299 305 300 277 246 230 223 220 220 223 225 226 227 227 227 227 228 228 229 230 231 232 231 230 230 230 230 230 230 228 228 227 226 225 225 227 228 230 232 234 235 236 236 236 236 236 236 236 237 238 238 238 238 238 239 240 241 243 244 246 247 248 249 251 252
277 276 276 274 267 260 256 255 257 259 264 269 274 278 281 283 285 287 288 289 292 297 304 302 282 252 234 227 224 224 224 225 226 226 227 227 227 227 228 227 228 228 228 228 228 228 228 229 229 229 229 228 226 224 223 223 225 226 227 229 231 233 235 235 236 236 235 235 235 235 236 236 237 237 237 239 240 241 243 244 245 246 247 248 250 251
275 274 274 271 265 259 255 253 253 255 256 258 261 265 271 277 282 284 285 286 289 294 301 301 285 259 240 231 228 227 227 227 227 228 229 231 231 232 232 231 230 228 227 226 226 226 226 226 226 226 226 226 225 224 224 224 224 225 226 227 230 232 233 234 235 234 234 233 233 233 234 235 236 236 237 239 240 241 242 243 244 245 246 247 248 249
273 273 272 270 265 259 254 252 251 251 251 251 252 254 259 266 273 279 282 283 285 291 298 299 286 265 246 236 231 229 228 228 228 229 231 233 234 236 237 237 235 233 230 228 226 225 225 224 224 224 225 226 226 226 226 226 225 225 226 227 229 231 232 232 232 232 232 231 231 232 234 235 236 237 238 239 240 241 242 243 244 244 245 246 247 248
270 271 272 270 266 260 254 251 249 248 247 247 248 249 251 256 262 269 274 278 282 289 296 299 289 270 252 241 234 231 229 229 229 230 232 233 235 237 239 241 240 238 235 232 230 229 228 227 227 227 228 228 229 229 229 228 226 226 227 228 230 230 230 230 230 229 229 229 230 232 235 236 237 237 238 240 240 241 242 242 243 244 245 246 247 247
269 268 270 270 267 261 255 251 248 246 245 245 245 244 243 246 252 260 267 273 281 288 295 299 292 275 254 243 236 233 231 230 230 231 232 233 235 237 239 240 240 239 236 234 233 232 231 231 231 230 230 230 231 231 230 229 228 227 228 229 230 230 230 230 230 229 229 228 229 232 235 236 237 237 239 240 241 241 241 242 242 243 244 245 246 247
269 268 268 269 267 262 256 251 247 244 243 243 243 241 238 236 243 255 266 274 281 288 295 299 295 279 257 242 235 233 232 231 231 231 232 233 234 236 238 239 238 236 233 231 230 229 229 229 230 230 230 230 230 230 230 229 228 228 228 229 229 230 230 231 231 231 230 229 230 233 235 236 237 238 239 240 241 241 241 242 243 243 244 245 246 247
268 267 267 267 266 263 257 251 245 242 240 240 241 241 238 234 237 251 267 275 280 287 296 302 296 279 258 241 232 229 229 230 231 231 231 232 234 235 236 237 235 233 230 227 225 225 225 226 227 227 228 228 228 228 228 228 228 227 228 228 229 231 232 233 233 233 231 230 230 232 233 234 235 237 238 239 240 241 241 242 243 244 244 245 246 247
270 267 266 266 265 262 258 252 246 241 239 239 240 240 239 237 236 241 251 261 274 290 304 306 291 271 254 238 228 222 222 224 227 229 229 231 232 233 233 232 231 229 226 224 223 222 223 224 225 226 226 227 226 226 227 227 227 228 228 229 230 230 231 232 232 232 231 230 230 231 232 233 234 235 236 237 238 240 241 242 243 244 245 245 246 247
273 270 268 266 264 262 259 254 248 243 240 240 240 240 239 238 236 233 231 229 247 286 303 298 278 261 247 233 221 215 212 214 219 223 225 225 225 226 226 225 225 225 224 222 221 221 222 224 225 226 226 226 226 226 226 227 228 229 230 230 230 229 229 230 230 230 229 229 229 230 231 232 233 235 236 237 239 240 241 242 243 244 244 245 246 247
276 273 269 266 264 263 261 256 250 245 242 240 241 241 241 240 237 232 225 217 218 241 257 255 249 243 238 232 221 211 203 201 206 212 215 214 214 215 215 216 218 219 220 219 219 219 221 222 224 224 225 225 225 226 227 228 229 229 230 230 229 228 228 230 231 231 230 228 227 228 229 231 232 234 236 237 239 240 242 243 244 245 246 247 247 247
276 274 271 267 265 264 262 259 253 246 242 241 241 242 242 241 239 235 229 219 209 207 217 227 229 226 224 228 226 216 205 194 193 197 200 198 196 198 203 206 208 210 212 212 214 215 217 218 220 222 223 224 225 227 228 230 230 230 229 228 227 227 228 230 232 233 232 229 227 226 226 228 230 232 234 235 237 238 240 241 243 244 246 247 248 249
274 273 270 267 265 264 263 260 254 247 243 241 241 241 241 240 238 236 232 226 218 212 212 217 224 227 223 214 215 221 217 199 189 186 186 180 177 178 186 195 199 200 201 201 201 203 205 209 212 215 217 219 222 224 226 228 229 229 228 227 226 227 228 230 231 231 231 229 227 225 224 224 226 228 230 232 234 235 236 237 238 238 239 240 242 243
272 270 268 265 264 263 263 260 254 248 244 241 240 239 238 237 235 234 233 231 226 221 218 217 222 226 226 214 211 216 220 208 196 188 181 168 160 161 168 180 188 191 191 189 187 187 190 194 197 200 203 207 211 214 217 219 221 223 223 224 224 224 225 226 227 227 227 226 225 224 223 223 223 224 226 227 228 230 231 231 231 231 231 230 230 230
271 268 264 262 262 262 262 259 254 248 244 241 239 237 235 233 232 230 229 229 227 225 223 220 219 221 222 217 212 211 213 206 199 192 183 165 153 151 155 165 176 181 181 179 176 174 175 177 178 179 183 188 194 198 202 205 208 211 213 215 216 217 218 219 219 221 222 223 224 224 225 224 224 224 223 223 223 224 225 224 224 223 221 219 216 214
269 265 261 258 259 261 260 257 252 247 242 238 235 233 231 229 227 225 224 224 224 224 223 219 216 216 217 212 207 204 204 198 192 189 183 164 151 147 150 156 166 171 169 167 165 164 164 163 162 162 163 169 177 184 189 193 196 199 201 204 206 209 211 213 215 217 218 220 222 223 225 226 226 226 226 225 223 222 220 218 216 212 208 204 199 194
265 261 257 255 256 257 257 253 247 241 235 232 229 227 227 225 223 221 221 220 220 218 216 210 208 209 210 207 202 197 196 193 191 190 183 159 145 142 147 151 158 161 157 153 151 153 155 152 149 147 148 152 158 164 171 176 180 183 185 188 191 194 197 201 204 206 207 208 208 209 209 209 209 210 212 214 214 214 212 209 204 199 193 187 180 174
259 255 252 251 252 251 249 245 239 233 228 224 222 222 222 222 220 218 217 215 214 212 209 204 201 200 200 197 194 190 188 188 193 194 182 154 141 140 145 151 156 155 148 144 143 145 147 144 139 136 135 138 141 145 149 154 159 162 164 165 166 167 169 171 174 176 177 177 176 174 173 171 171 171 173 176 179 182 184 185 184 182 178 173 167 160
252 248 246 246 246 243 238 233 230 225 219 213 211 211 213 215 215 214 213 212 211 208 205 200 193 188 187 187 184 182 183 186 192 194 184 160 146 142 146 153 153 148 141 140 140 141 141 138 135 132 129 130 132 134 136 139 142 145 147 148 148 147 147 147 147 148 148 149 149 150 151 152 153 155 157 159 162 164 167 169 171 171 170 167 164 159
244 241 240 240 238 233 225 223 221 217 209 202 198 199 202 205 207 209 209 208 206 203 199 191 182 176 177 179 178 178 181 185 190 193 188 168 151 145 148 153 151 144 138 138 139 140 138 135 133 131 129 128 128 130 132 133 135 136 138 139 140 140 139 139 139 140 141 143 144 146 148 150 151 153 154 156 158 160 163 165 168 170 171 171 171 170
236 234 232 231 226 219 214 213 211 207 200 193 190 191 193 195 197 198 198 198 197 195 190 184 177 174 176 177 175 175 178 181 188 196 198 179 158 147 148 152 152 145 138 137 138 138 136 133 132 131 130 128 128 130 132 133 134 135 136 137 138 139 140 140 141 143 145 147 149 151 153 154 155 156 157 158 161 163 166 169 172 175 178 180 181 181
225 223 222 219 214 208 206 206 203 197 191 187 185 185 186 186 187 188 188 190 191 190 186 180 174 172 173 173 172 172 174 178 183 194 204 191 167 152 148 151 151 146 140 136 135 135 134 131 130 131 130 129 129 131 134 135 136 137 138 139 140 141 143 145 147 149 152 154 156 158 158 159 159 161 162 163 165 168 170 173 176 179 182 183 184 182
212 210 209 207 203 200 201 202 198 190 185 183 183 183 183 183 183 184 184 185 186 187 185 179 173 169 168 168 169 171 173 176 178 185 196 191 169 154 151 152 152 148 141 135 133 133 132 129 128 129 130 131 132 133 135 137 138 139 140 141 143 145 147 149 152 155 158 160 162 163 163 163 164 164 166 167 169 171 173 176 178 179 180 180 179 178
194 194 194 193 191 193 196 199 195 187 182 182 184 186 187 186 186 184 179 177 178 181 181 179 174 170 168 166 167 168 170 173 173 175 181 175 162 154 155 155 154 151 143 134 129 127 124 123 124 126 128 132 135 136 137 139 140 141 142 143 145 147 149 152 154 157 160 162 163 164 164 164 165 165 166 167 169 170 171 172 172 172 172 172 172 171
175 176 178 180 183 187 192 195 192 185 181 182 185 188 189 190 189 184 176 172 174 176 176 174 172 169 166 163 162 162 165 167 168 169 169 162 155 153 156 157 157 154 148 138 128 120 116 117 121 124 128 132 134 136 137 139 141 142 143 144 145 147 148 150 153 155 156 158 158 159 159 159 159 160 160 161 161 161 161 161 162 162 163 164 166 167
160 161 165 170 176 184 190 193 191 186 183 182 184 185 186 189 189 186 179 175 173 173 171 169 167 165 163 161 158 158 160 162 164 166 166 160 155 153 156 157 157 158 156 148 135 123 117 118 122 126 130 131 131 132 133 135 138 140 142 144 144 144 146 147 149 150 151 151 151 150 150 150 150 150 151 151 152 152 152 152 153 156 158 161 164 166
155 154 156 161 171 180 186 189 188 186 184 183 182 181 180 183 186 186 183 178 176 173 170 166 163 163 163 162 160 159 160 160 162 166 168 162 156 155 157 157 156 157 159 159 150 138 129 128 130 132 133 131 129 128 128 129 131 134 138 140 140 140 141 143 145 146 146 145 145 144 143 143 143 144 145 146 147 147 148 150 152 155 158 162 165 168
157 153 153 156 165 173 178 181 181 180 180 178 176 172 171 175 180 183 183 180 179 177 173 168 164 164 164 164 161 158 158 160 162 166 171 167 159 156 158 159 157 156 158 161 161 155 145 140 138 138 136 132 129 127 126 127 127 129 132 135 135 136 137 139 140 141 141 141 141 141 141 141 141 142 143 145 146 148 150 152 155 157 161 163 166 169
158 154 152 153 157 162 166 168 168 167 166 164 161 159 160 165 173 178 180 180 181 181 179 174 170 168 167 164 160 157 157 159 162 165 171 173 165 158 159 160 160 159 158 158 158 155 149 145 143 141 138 135 132 129 128 127 128 130 132 133 134 134 135 137 137 138 138 139 139 140 141 142 143 144 145 147 149 151 154 157 160 162 165 166 167 168
155 151 148 147 148 150 152 152 151 150 148 147 146 146 149 155 164 171 175 178 181 184 185 182 178 174 171 167 161 158 157 159 160 163 169 175 171 163 162 162 162 162 161 159 157 152 147 145 144 143 141 139 136 134 133 133 134 136 136 137 137 136 137 137 138 139 139 140 141 141 142 144 145 147 149 151 154 156 158 161 163 166 167 169 169 168
149 145 142 141 141 141 141 140 139 137 136 136 136 137 140 146 154 162 167 171 174 178 181 181 179 176 174 171 164 158 155 156 156 158 163 171 173 168 162 161 162 164 163 162 159 154 149 146 146 146 145 143 141 140 141 141 141 140 140 140 140 139 140 140 140 141 142 142 143 144 146 147 149 151 153 155 158 160 161 163 164 165 167 168 169 168
143 140 138 138 137 137 136 134 133 131 130 130 130 131 133 137 142 147 152 156 159 163 165 166 165 163 162 161 157 152 148 149 149 150 153 161 168 166 159 157 158 160 162 161 161 158 154 149 148 149 148 147 146 146 146 146 144 143 142 141 142 142 142 142 143 143 144 145 146 147 148 150 152 154 156 157 159 160 161 162 162 162 162 163 163 164
138 137 136 136 135 134 132 131 130 128 127 127 126 127 128 130 132 134 137 141 145 147 149 148 146 144 144 145 145 143 142 142 141 141 143 150 157 159 154 152 152 154 157 160 161 160 158 154 152 151 151 150 149 149 149 148 147 146 145 144 145 145 145 145 145 146 146 148 148 149 150 152 153 155 155 157 157 158 157 157 158 159 158 159 159 160
136 135 134 134 133 131 130 128 127 126 126 125 124 124 125 126 127 128 129 133 136 138 138 137 135 134 135 136 137 137 136 136 136 136 138 143 148 152 151 149 149 149 150 153 158 161 161 158 156 154 153 152 151 150 150 149 149 148 148 147 147 147 147 147 147 148 148 149 149 150 151 152 153 154 154 154 154 154 154 155 156 158 159 160 162 163
135 133 133 132 131 129 128 126 126 125 125 125 124 125 125 125 126 126 128 131 133 135 134 133 132 131 132 132 133 133 134 134 134 135 136 140 144 148 149 147 145 144 144 147 154 160 161 159 157 155 154 152 151 151 151 150 150 150 150 150 149 148 148 148 148 148 149 149 149 150 151 152 154 154 154 153 153 154 155 157 159 161 163 165 167 169
134 133 132 131 130 129 128 127 126 126 125 125 125 126 126 127 128 130 131 133 135 135 135 134 133 132 132 132 132 133 134 134 135 135 136 138 141 144 145 143 140 138 138 141 149 157 160 157 155 153 152 151 150 150 151 151 151 152 153 153 152 150 149 148 148 149 150 151 152 154 154 155 155 155 156 155 156 157 160 162 163 166 168 171 175 178
134 133 132 132 131 131 130 129 129 128 128 128 127 127 128 129 131 133 135 136 137 137 137 137 136 135 134 133 133 134 134 135 136 137 137 138 139 141 141 139 136 134 133 136 142 149 154 154 152 150 150 150 150 150 151 152 153 154 155 155 154 152 151 149 150 151 152 154 157 159 159 158 158 158 159 160 160 162 165 167 169 172 175 178 182 185
135 134 133 133 133 133 133 132 132 132 131 131 130 130 131 132 134 136 137 137 138 138 138 139 138 137 135 134 134 135 135 137 138 138 139 138 139 139 139 137 135 133 132 133 137 142 146 149 149 148 148 150 151 152 152 153 155 155 156 156 157 156 153 153 154 156 157 159 161 163 163 163 162 162 164 165 167 169 172 174 177 180 183 186 189 192
136 136 135 135 135 135 135 135 135 135 135 134 133 133 134 135 136 137 138 137 137 137 138 139 140 139 137 136 135 135 136 138 139 139 140 140 139 139 139 138 136 133 132 133 135 138 141 144 146 146 148 150 153 154 155 156 157 157 157 157 157 156 155 155 157 160 162 165 166 166 166 166 167 168 171 174 176 179 181 183 187 190 194 197 199 201
138 138 138 137 138 138 138 138 138 138 137 137 136 136 136 136 137 138 138 137 136 136 137 139 141 141 138 137 137 137 138 138 139 140 140 140 140 140 140 138 137 135 134 134 136 139 141 143 145 146 147 150 153 156 157 158 158 158 157 157 157 156 157 157 159 161 164 166 167 167 167 167 171 174 178 181 184 185 188 192 196 201 205 208 210 212
141 141 140 140 140 140 140 141 141 140 140 140 139 139 138 139 139 139 138 137 136 136 137 140 142 142 139 139 139 140 140 139 140 141 141 141 142 142 142 141 139 137 135 135 137 139 141 143 145 146 148 150 152 153 153 156 157 157 157 157 157 158 158 158 159 161 164 165 165 165 167 169 173 178 181 183 185 187 191 196 201 206 211 215 219 222
143 142 142 142 142 143 143 143 144 143 143 143 142 142 142 142 143 143 142 140 139 138 138 141 143 143 141 141 142 143 143 142 142 143 143 144 145 146 146 145 144 142 140 138 137 137 138 139 140 143 146 149 151 151 150 150 152 154 154 155 157 159 159 159 159 161 163 164 163 164 167 170 174 180 184 186 187 188 192 198 204 209 214 219 224 228
144 144 144 144 144 145 145 146 146 146 146 145 145 145 145 145 146 147 146 145 144 142 142 144 146 146 144 144 145 147 147 147 146 146 147 148 149 150 151 150 148 147 144 142 141 139 138 136 133 132 134 145 151 151 151 149 150 151 152 154 157 159 160 159 159 161 163 165 166 167 168 171 176 183 187 190 191 193 196 200 206 211 216 221 226 231
145 146 146 146 147 147 147 147 148 149 148 147 146 145 145 146 147 149 150 150 149 148 147 148 151 152 150 150 150 151 152 151 150 151 151 152 153 154 154 154 153 150 148 146 145 144 142 139 136 133 130 135 144 150 152 152 152 153 154 155 158 160 161 161 162 164 168 172 175 176 177 180 184 190 194 196 197 200 204 206 210 214 218 223 227 232
147 147 148 148 148 148 147 148 149 149 148 147 145 144 144 145 146 147 149 150 151 150 150 152 155 157 156 155 154 155 156 156 155 155 155 156 156 157 156 157 156 155 152 151 149 147 144 141 139 139 139 138 140 145 151 154 157 158 159 160 162 164 164 164 166 170 174 179 183 187 189 192 196 201 203 205 207 211 213 216 217 219 222 225 228 232
149 149 149 149 148 148 148 148 148 148 147 145 144 143 143 143 144 144 145 146 147 148 149 153 157 160 159 157 156 157 158 159 158 157 156 158 159 159 159 160 160 160 159 156 154 152 148 144 140 139 142 145 148 148 146 152 159 162 164 165 168 170 170 170 173 177 180 184 189 193 196 199 202 205 209 211 215 217 221 224 226 227 228 228 230 233